Terminal Aerodrome Forecast
Issued by NWS Grand Forks, ND

Home | Current Version | Previous Version | Graphics & Text | Print | Product List | Glossary On
Versions: 1 2 3 4 5 6 7 8 9 10 11 12 13 14 15 16 17 18 19 20 21
620
FTUS43 KFGF 221500 AAA
TAFFAR
TAF AMD
KFAR 221500Z 2215/2312 15017G27KT P6SM OVC080
     FM221900 14019G29KT P6SM OVC045=

USA.gov is the U.S. government's official web portal to all federal, state and local government web resources and services.